Location: Gaast
(52.9002°N, 5.8891°E)
Time: 10:02:36
(UTC+00:00)

SJ-7 - Pass Details

Date: 18 November 2025
Orbit: 500 x 522 km, 97.7° (Epoch: 11 December)

Event Time Altitude Azimuth Distance (km) Brightness Sun altitude
Rises 17:31:00 0° 155° (SSE) 2,587 7.6 -16.7°
Reaches altitude 10° 17:33:05 10° 151° (SSE) 1,707 6.6 -17.0°
Maximum altitude 17:36:42 60° 72° (ENE) 580 4.1 -17.6°
Drops below altitude 10° 17:40:22 10° 352° (N) 1,723 6.8 -18.1°
Sets 17:42:28 0° 349° (N) 2,615 7.8 -18.4°
